TimeCST,TemperatureF,Dew PointF,Humidity,Sea Level PressureIn,VisibilityMPH,Wind Direction,Wind SpeedMPH,Gust SpeedMPH,PrecipitationIn,Events,Conditions,WindDirDegrees,DateUTC
12:15 AM,0.7,-13.4,52,30.37,10.0,East,5.8,-,N/A,,Clear,100,2013-02-21 06:15:00
12:35 AM,0.3,-14.4,50,30.37,10.0,East,8.1,-,N/A,,Clear,100,2013-02-21 06:35:00
12:55 AM,0.9,-13.9,50,30.36,10.0,East,10.4,-,N/A,,Clear,100,2013-02-21 06:55:00
1:15 AM,1.2,-13.7,50,30.36,10.0,East,5.8,-,N/A,,Clear,100,2013-02-21 07:15:00
1:35 AM,1.0,-14.1,49,30.37,10.0,East,6.9,-,N/A,,Clear,100,2013-02-21 07:35:00
1:55 AM,-0.0,-14.3,51,30.38,10.0,ESE,4.6,-,N/A,,Clear,110,2013-02-21 07:55:00
2:15 AM,-0.2,-14.1,52,30.39,10.0,SE,3.5,-,N/A,,Clear,130,2013-02-21 08:15:00
2:35 AM,-0.9,-14.3,53,30.39,10.0,Calm,Calm,-,N/A,,Clear,0,2013-02-21 08:35:00
2:55 AM,-3.8,-15.2,58,30.39,10.0,Calm,Calm,-,N/A,,Clear,0,2013-02-21 08:55:00
3:15 AM,-7.2,-16.4,64,30.39,10.0,East,3.5,-,N/A,,Clear,100,2013-02-21 09:15:00
3:35 AM,-8.0,-16.8,65,30.39,10.0,Calm,Calm,-,N/A,,Clear,0,2013-02-21 09:35:00
3:55 AM,-7.8,-16.6,65,30.39,10.0,East,3.5,-,N/A,,Clear,100,2013-02-21 09:55:00
4:15 AM,-5.4,-14.6,65,30.39,10.0,East,3.5,-,N/A,,Clear,90,2013-02-21 10:15:00
4:35 AM,-4.5,-14.8,61,30.39,10.0,ESE,4.6,-,N/A,,Clear,110,2013-02-21 10:35:00
4:55 AM,-5.8,-15.0,65,30.39,10.0,East,3.5,-,N/A,,Clear,100,2013-02-21 10:55:00
5:15 AM,-5.1,-15.0,62,30.38,10.0,East,3.5,-,N/A,,Clear,90,2013-02-21 11:15:00
5:35 AM,-5.4,-15.3,62,30.39,10.0,East,4.6,-,N/A,,Clear,90,2013-02-21 11:35:00
5:55 AM,-7.8,-16.2,67,30.38,10.0,ENE,3.5,-,N/A,,Clear,70,2013-02-21 11:55:00
6:15 AM,-7.4,-15.7,67,30.38,10.0,East,4.6,-,N/A,,Clear,80,2013-02-21 12:15:00
6:35 AM,-8.5,-16.6,68,30.36,10.0,East,4.6,-,N/A,,Clear,90,2013-02-21 12:35:00
6:55 AM,-8.0,-15.7,69,30.34,10.0,ENE,4.6,-,N/A,,Clear,70,2013-02-21 12:55:00
7:15 AM,-6.5,-15.2,66,30.34,10.0,East,5.8,-,N/A,,Clear,80,2013-02-21 13:15:00
7:35 AM,-6.3,-14.8,67,30.34,10.0,East,3.5,-,N/A,,Clear,90,2013-02-21 13:35:00
7:55 AM,-6.2,-14.8,66,30.36,10.0,Calm,Calm,-,N/A,,Clear,0,2013-02-21 13:55:00
8:15 AM,-5.1,-14.1,65,30.37,10.0,ESE,5.8,-,N/A,,Clear,110,2013-02-21 14:15:00
8:35 AM,-4.2,-13.0,66,30.40,10.0,SE,8.1,-,N/A,,Clear,140,2013-02-21 14:35:00
8:55 AM,-2.0,-11.0,66,30.42,10.0,SSE,9.2,-,N/A,,Clear,150,2013-02-21 14:55:00
9:15 AM,-0.4,-9.6,65,30.42,10.0,ESE,6.9,-,N/A,,Clear,120,2013-02-21 15:15:00
9:35 AM,0.7,-8.7,65,30.41,10.0,East,5.8,-,N/A,,Clear,100,2013-02-21 15:35:00
9:55 AM,2.5,-7.6,63,30.40,10.0,East,5.8,-,N/A,,Clear,100,2013-02-21 15:55:00
10:15 AM,3.7,-6.3,63,30.38,10.0,East,5.8,-,N/A,,Clear,90,2013-02-21 16:15:00
10:35 AM,6.6,-3.6,63,30.38,7.0,SE,8.1,-,N/A,Snow,Light Snow,130,2013-02-21 16:35:00
10:55 AM,9.9,-0.0,64,30.36,10.0,SE,10.4,-,N/A,Snow,Light Snow,130,2013-02-21 16:55:00
11:15 AM,11.5,2.1,66,30.36,10.0,ESE,8.1,-,N/A,,Clear,120,2013-02-21 17:15:00
11:35 AM,13.3,4.3,67,30.36,10.0,ESE,13.8,-,N/A,,Clear,120,2013-02-21 17:35:00
11:55 AM,14.2,4.8,66,30.36,10.0,SE,12.7,-,N/A,,Clear,130,2013-02-21 17:55:00
12:15 PM,14.9,5.0,65,30.36,10.0,SE,11.5,-,N/A,,Clear,130,2013-02-21 18:15:00
12:35 PM,15.3,5.2,64,30.34,10.0,ESE,8.1,-,N/A,,Clear,110,2013-02-21 18:35:00
12:55 PM,15.8,4.8,62,30.33,10.0,ESE,8.1,-,N/A,,Clear,120,2013-02-21 18:55:00
1:15 PM,16.3,4.8,61,30.32,10.0,East,9.2,-,N/A,,Clear,100,2013-02-21 19:15:00
1:35 PM,16.5,4.8,60,30.32,10.0,ESE,8.1,-,N/A,,Clear,110,2013-02-21 19:35:00
1:55 PM,16.9,5.0,60,30.32,10.0,East,6.9,-,N/A,,Clear,100,2013-02-21 19:55:00
2:15 PM,16.9,4.8,59,30.30,10.0,ESE,6.9,-,N/A,,Clear,110,2013-02-21 20:15:00
2:35 PM,17.2,4.8,58,30.29,10.0,ESE,6.9,-,N/A,,Clear,110,2013-02-21 20:35:00
2:55 PM,17.8,4.5,56,30.28,10.0,East,6.9,-,N/A,,Clear,100,2013-02-21 20:55:00
3:15 PM,18.1,3.7,53,30.28,10.0,ESE,6.9,-,N/A,,Clear,120,2013-02-21 21:15:00
3:35 PM,18.1,3.9,54,30.27,10.0,East,6.9,-,N/A,,Clear,80,2013-02-21 21:35:00
3:55 PM,18.1,3.7,53,30.27,10.0,East,5.8,-,N/A,,Clear,100,2013-02-21 21:55:00
4:15 PM,18.1,3.0,52,30.26,10.0,ESE,5.8,-,N/A,,Clear,110,2013-02-21 22:15:00
4:35 PM,16.9,2.3,53,30.26,10.0,ESE,5.8,-,N/A,,Clear,110,2013-02-21 22:35:00
4:55 PM,16.7,2.3,53,30.26,10.0,ESE,6.9,-,N/A,,Clear,110,2013-02-21 22:55:00
5:15 PM,16.9,2.1,52,30.25,10.0,ESE,5.8,-,N/A,,Clear,110,2013-02-21 23:15:00
5:35 PM,16.3,2.1,54,30.25,10.0,East,4.6,-,N/A,,Clear,100,2013-02-21 23:35:00
5:55 PM,15.6,2.1,55,30.25,10.0,East,5.8,-,N/A,,Clear,100,2013-02-21 23:55:00
6:15 PM,15.3,1.9,56,30.26,10.0,Calm,Calm,-,N/A,,Clear,0,2013-02-22 00:15:00
6:35 PM,14.9,1.6,56,30.25,10.0,Calm,Calm,-,N/A,,Clear,0,2013-02-22 00:35:00
6:55 PM,14.7,1.0,55,30.24,10.0,ENE,4.6,-,N/A,,Clear,70,2013-02-22 00:55:00
7:15 PM,14.2,0.3,54,30.23,10.0,East,5.8,-,N/A,,Clear,80,2013-02-22 01:15:00
7:35 PM,14.4,0.3,54,30.22,10.0,East,5.8,-,N/A,,Clear,80,2013-02-22 01:35:00
7:55 PM,14.4,0.3,54,30.22,10.0,East,4.6,-,N/A,,Clear,90,2013-02-22 01:55:00
8:15 PM,14.5,0.5,54,30.21,10.0,East,5.8,-,N/A,,Clear,90,2013-02-22 02:15:00
8:35 PM,14.4,1.2,56,30.20,10.0,East,6.9,-,N/A,,Clear,100,2013-02-22 02:35:00
8:55 PM,14.4,2.3,59,30.20,10.0,East,6.9,-,N/A,,Clear,100,2013-02-22 02:55:00
9:15 PM,14.0,2.3,60,30.19,10.0,East,6.9,-,N/A,,Clear,90,2013-02-22 03:15:00
9:35 PM,14.2,2.7,60,30.19,10.0,East,4.6,-,N/A,,Clear,90,2013-02-22 03:35:00
9:55 PM,14.0,3.6,63,30.19,10.0,ESE,5.8,-,N/A,,Clear,110,2013-02-22 03:55:00
10:15 PM,14.7,4.6,64,30.19,10.0,East,6.9,-,N/A,,Clear,100,2013-02-22 04:15:00
10:55 PM,15.4,8.6,74,30.17,10.0,East,6.9,-,N/A,,Clear,90,2013-02-22 04:55:00
11:15 PM,15.3,9.0,76,30.17,10.0,East,8.1,-,N/A,,Clear,100,2013-02-22 05:15:00
11:35 PM,14.9,9.5,79,30.16,10.0,East,8.1,-,N/A,,Clear,100,2013-02-22 05:35:00
11:55 PM,14.4,9.5,81,30.16,10.0,ESE,6.9,-,N/A,,Scattered Clouds,110,2013-02-22 05:55:00